Renton, WA

4:17 PM PDT on July 24, 2017 (GMT -0700)
Renton Municipal

Weather History for KRNT - January, 2013

Change the Weather History Date:

Thursday, January 24, 2013

  Actual Average Record
Temperature  
Mean Temperature 40 °F -  
Max Temperature 46 °F 47 °F 60 °F (2015)
Min Temperature 34 °F 37 °F 30 °F (2014)
Degree Days  
Heating Degree Days 25    
Moisture  
Dew Point 38 °F    
Average Humidity 89    
Maximum Humidity 100    
Minimum Humidity 63    
Precipitation  
Precipitation 0.16 in - - ()
Sea Level Pressure  
Sea Level Pressure 30.15 in    
Wind  
Wind Speed 4 mph (SE)    
Max Wind Speed 8 mph    
Max Gust Speed -    
Visibility 9 miles    
Events Rain    
Averages and records for this station are not official NWS values.
T = Trace of Precipitation, MM = Missing Value Source: NWS Daily Summary

Daily Weather History Graph

Daily Weather History Graph

Search for Another Location

Airport or City:

Trip Planner

Search our weather history database for the weather conditions in past years. The results will help you decide how hot, cold, wet, or windy it might be!

Date:

Astronomy

Jan. 24, 2013 Rise Set
Actual Time 7:44 AM PST 4:58 PM PST
Civil Twilight 7:10 AM PST 5:32 PM PST
Nautical Twilight 6:32 AM PST 6:09 PM PST
Astronomical Twilight 5:56 AM PST 6:46 PM PST
Moon 3:03 PM PST 5:48 AM PST
Length of Visible Light 10h 22m
Length of Day
9h 14m
Waxing Gibbous, 95% of the Moon is Illuminated
Jan 24
Waxing Gibbous
Jan 26
Full
Feb 3
Last Quarter
Feb 9
New
Feb 17
First Quarter

Hourly Weather History & Observations

Time (PST) Temp. Windchill Dew Point Humidity Pressure Visibility Wind Dir Wind Speed Gust Speed Precip Events Conditions
12:31 AM 42.8 °F 38.0 °F 39.2 °F 87% 30.16 in 10.0 mi SSE 8.1 mph - N/A   Overcast
12:53 AM 42.1 °F 37.7 °F 39.0 °F 89% 30.18 in 10.0 mi South 6.9 mph - N/A   Overcast
1:04 AM 42.8 °F 38.6 °F 39.2 °F 87% 30.17 in 10.0 mi South 6.9 mph - N/A   Overcast
1:33 AM 41.0 °F 39.0 °F 39.2 °F 93% 30.18 in 10.0 mi ESE 3.5 mph - N/A   Scattered Clouds
1:51 AM 41.0 °F 39.0 °F 37.4 °F 87% 30.19 in 10.0 mi ESE 3.5 mph - N/A   Mostly Cloudy
1:53 AM 41.0 °F - 37.9 °F 89% 30.20 in 10.0 mi Calm Calm - N/A   Mostly Cloudy
2:53 AM 39.9 °F - 37.9 °F 93% 30.22 in 10.0 mi Calm Calm - N/A   Overcast
3:39 AM 37.4 °F 34.9 °F 37.4 °F 100% 30.20 in 10.0 mi ESE 3.5 mph - N/A   Scattered Clouds
3:53 AM 37.9 °F - 37.0 °F 97% 30.22 in 10.0 mi Calm Calm - N/A   Partly Cloudy
4:53 AM 37.0 °F - 36.0 °F 96% 30.21 in 10.0 mi Calm Calm - N/A   Partly Cloudy
5:53 AM 36.0 °F - 34.0 °F 93% 30.23 in 10.0 mi Calm Calm - N/A   Partly Cloudy
6:53 AM 34.0 °F 31.0 °F 33.1 °F 96% 30.22 in 10.0 mi South 3.5 mph - N/A   Clear
7:53 AM 34.0 °F - 33.1 °F 96% 30.22 in 10.0 mi Calm Calm - N/A   Clear
8:53 AM 34.0 °F - 33.1 °F 96% 30.21 in 10.0 mi Calm Calm - N/A   Clear
9:53 AM 37.9 °F 34.4 °F 35.1 °F 89% 30.20 in 10.0 mi SSE 4.6 mph - N/A   Partly Cloudy
10:53 AM 41.0 °F 39.0 °F 37.0 °F 86% 30.19 in 10.0 mi SE 3.5 mph - N/A   Clear
11:53 AM 43.0 °F - 37.0 °F 80% 30.17 in 10.0 mi Calm Calm - N/A   Clear
12:53 PM 45.0 °F - 37.0 °F 74% 30.14 in 10.0 mi Calm Calm - N/A   Partly Cloudy
1:53 PM 46.0 °F - 35.1 °F 66% 30.12 in 10.0 mi Calm Calm - N/A   Overcast
2:53 PM 46.0 °F 44.8 °F 34.0 °F 63% 30.10 in 10.0 mi SE 3.5 mph - N/A   Overcast
3:53 PM 46.0 °F 44.8 °F 35.1 °F 66% 30.10 in 10.0 mi WSW 3.5 mph - N/A   Overcast
4:53 PM 43.0 °F - 39.0 °F 86% 30.12 in 6.0 mi Calm Calm - 0.01 in Rain Light Rain
5:53 PM 43.0 °F - 41.0 °F 93% 30.12 in 6.0 mi Calm Calm - 0.05 in Rain Light Rain
6:53 PM 42.1 °F - 41.0 °F 96% 30.11 in 4.0 mi Calm Calm - 0.05 in Rain Light Rain
7:53 PM 42.1 °F 37.7 °F 41.0 °F 96% 30.11 in 5.0 mi ESE 6.9 mph - 0.03 in Rain Light Rain
8:53 PM 42.1 °F 40.2 °F 39.9 °F 92% 30.09 in 10.0 mi East 3.5 mph - 0.00 in   Overcast
9:53 PM 42.1 °F 38.4 °F 39.9 °F 92% 30.08 in 10.0 mi SE 5.8 mph - 0.00 in   Overcast
10:53 PM 42.1 °F 38.4 °F 39.9 °F 92% 30.08 in 10.0 mi East 5.8 mph - 0.00 in   Overcast
11:38 PM 42.8 °F - 41.0 °F 93% 30.06 in 3.0 mi Calm Calm - 0.01 in Rain Light Rain
11:50 PM 42.8 °F - 41.0 °F 93% 30.07 in 2.5 mi Calm Calm - 0.01 in Rain Light Rain
11:53 PM 42.1 °F - 41.0 °F 96% 30.08 in 2.5 mi Calm Calm - 0.02 in Rain Light Rain